Find Starlink 33816

NORAD ID: 63677 Int'l Des: 2025-085 Owner: SPXS Country: US Constellation: starlink operational
LEOCIRCULAR

Live-Position

3D-Globus wird geladen...

Über Starlink 33816

Beschreibung wird geladen...

Nächste Überflüge

Passes for default location (London). Set your location on the main map for personalized predictions.

Höhenverlauf

Loading altitude history...

Zweizeiliger Elementsatz

1 63677U 25085P 26106.25687248 .00007349 00000-0 27625-3 0 9994
2 63677 43.0007 178.9068 0001595 260.6778 99.3893 15.27589704 54716
Epoch: 16. Apr. 2026 • Age: 9 hours

Aktueller Status

Höhe 487.0 km
Geschwindigkeit 7.62 km/s
Subsatellitenpunkt -19.83°S, 77.55°E
Startdatum 28. Apr. 2025
Alter 0.9 years
Typ internet

Technische Details

Klassifizierung Payload
Masse 575.00 kg
Trockenmasse 530.00 kg
Gesamtmasse 575.00 kg
Länge 0.30 m
Durchmesser 4.10 m
Spannweite 29.00 m
Form Box + pan
Hersteller SPXS
Bus-Typ Starlink V2MO
Phasenstatus In Orbit
Besitzer/Staat SPXS/US

Most Searched